Location: Staunton
(38.1490°N, 79.0720°W)
Time: 11:45:56
(UTC-04:00)

ISS - Pass Details

Date: 30 May 2020
Orbit: 417 x 420 km, 51.6° (Epoch: 26 May)

Event Time Altitude Azimuth Distance (km) Brightness Sun altitude
Rises 21:47:33 0° 317° (NW) 2,364 2.1 -12.8°
Reaches altitude 10° 21:49:55 10° 332° (NNW) 1,498 0.3 -13.2°
Maximum altitude 21:52:43 24° 28° (NNE) 922 -1.9 -13.6°
Enters shadow 21:54:57 13° 78° (ENE) 1,322 -1.6 -13.9°
